Location: Baili�vre
(50.0696°N, 4.2409°E)
Time: 23:07:14
(UTC+00:00)

Cosmos 2082 Rocket - Pass Details

Date: 08 August 2020
Orbit: 835 x 852 km, 71.0° (Epoch: 23 September)

Event Time Altitude Azimuth Distance (km) Brightness Sun altitude
Rises 21:46:07 0° 222° (SW) 3,404 5.2 -18.8°
Reaches altitude 10° 21:48:37 10° 227° (SW) 2,470 4.5 -19.0°
Maximum altitude 21:54:11 56° 305° (NW) 1,008 2.9 -19.5°
Drops below altitude 10° 21:59:45 10° 23° (NNE) 2,473 5.1 -19.9°
Sets 22:02:16 0° 28° (NNE) 3,409 5.8 -20.1°
